Wind_Speed
47 47 44 44 41 39 40 44 47 48 49 49 50 50 50 50 48 46 45 44 42 40 37 37 36 35 34 34 33 33 33 32 32 32 33 33 33 34 35 36 36 37 38
49 46 43 44 42 39 40 43 44 46 46 48 46 45 47 47 47 46 45 44 43 40 38 37 37 37 37 36 35 35 34 34 34 33 33 33 34 35 36 36 37 38 39
48 45 41 41 41 38 37 40 43 43 43 44 43 43 45 46 46 46 45 44 43 41 40 40 40 39 37 36 36 36 35 35 35 34 33 34 35 35 36 37 38 39 40
44 42 40 38 38 37 37 39 39 40 41 43 44 42 43 44 45 46 45 45 44 43 41 40 40 39 37 36 36 36 36 36 34 34 34 35 35 36 36 36 37 39 40
40 39 37 35 34 35 35 37 39 39 41 43 43 42 41 41 42 44 43 42 42 43 42 41 40 39 37 36 36 36 34 33 33 34 34 35 36 36 37 37 39 41 42
35 35 33 33 32 32 34 35 34 34 35 38 39 41 41 41 40 40 40 39 40 41 40 40 40 39 38 37 37 36 34 33 34 35 36 37 38 39 40 40 42 43 43
32 31 30 29 29 28 30 32 31 31 31 33 34 35 36 38 37 38 39 39 40 40 41 41 40 39 37 37 36 36 35 34 35 37 38 39 40 40 41 42 43 44 45
29 30 28 27 28 27 27 28 29 29 30 31 31 32 33 34 35 35 36 36 36 36 37 37 37 37 37 36 36 35 35 36 37 38 39 40 41 42 43 44 45 46 46
24 26 27 27 27 28 28 28 27 28 28 29 29 30 33 34 35 36 36 36 35 35 36 36 36 37 38 38 37 37 38 39 40 41 42 43 44 45 45 46 47 47 47
20 22 23 24 24 25 26 28 29 29 28 28 29 30 30 32 33 34 34 34 34 34 35 36 37 37 38 39 40 41 41 42 43 44 44 45 46 46 47 47 47 47 47
16 17 20 23 24 25 25 27 28 29 30 30 31 32 32 32 33 34 34 35 35 36 36 37 37 38 40 41 42 42 44 44 44 45 45 46 46 46 47 47 47 47 48
14 16 18 20 22 25 26 28 29 30 31 31 32 33 34 35 36 37 37 37 38 38 40 41 41 41 42 43 43 44 45 46 46 47 46 46 46 47 47 47 47 47 46
14 15 17 20 22 24 26 28 30 32 33 34 34 35 37 37 38 39 40 41 42 42 43 44 44 44 44 45 45 45 45 45 46 46 46 46 46 46 46 46 45 45 45
16 18 20 22 24 26 28 30 32 33 35 36 37 37 38 39 40 41 42 43 44 44 45 45 46 45 45 45 45 46 46 45 45 45 45 45 45 45 44 44 44 44 44
17 20 22 24 27 29 32 34 35 37 38 40 41 42 43 43 43 44 45 46 46 46 47 47 47 47 47 47 46 46 46 45 45 45 44 44 44 43 43 43 43 43 42
19 21 24 26 29 32 35 37 39 40 42 43 44 45 46 47 47 47 48 48 48 48 48 48 48 48 48 47 47 46 46 45 44 44 44 43 43 43 43 42 42 42 41
21 23 25 28 31 33 36 39 41 43 45 46 47 48 48 49 50 50 50 49 49 49 49 49 48 48 47 47 46 46 46 45 44 44 44 43 43 42 42 42 42 41 41
23 26 28 31 33 36 38 40 42 44 46 47 48 49 50 50 51 51 50 50 50 50 49 49 49 48 47 47 47 46 46 45 45 45 44 43 42 42 42 41 41 41 40
27 29 31 34 36 38 40 43 45 46 47 49 50 50 51 51 52 51 51 51 50 50 50 49 49 48 48 48 47 47 46 46 45 45 44 44 43 42 41 41 41 40 39
30 33 35 38 40 42 44 46 47 49 50 51 52 52 52 52 52 52 51 51 51 50 50 50 49 49 48 48 47 47 46 46 46 45 44 44 43 42 41 41 40 39 38
31 34 36 39 42 44 47 49 50 52 53 54 54 55 54 54 54 53 52 52 51 51 51 51 50 49 49 48 48 47 46 46 45 45 44 43 42 41 41 40 39 38 37
33 36 38 40 42 45 47 49 51 53 54 55 56 56 55 55 54 54 53 52 52 52 51 50 50 49 48 48 47 47 46 45 45 44 43 42 41 40 39 39 38 38 36
35 38 40 42 44 46 48 49 51 52 53 54 55 55 55 55 54 54 53 52 52 51 51 51 50 49 49 48 47 47 46 45 44 43 42 41 40 39 39 38 38 37 36
38 40 41 43 45 48 49 51 52 53 54 54 54 54 53 53 52 52 52 52 51 50 50 50 49 49 49 48 48 47 47 46 45 43 42 41 40 39 39 38 37 36 35
41 42 44 46 47 49 50 52 52 53 53 53 53 53 53 53 52 51 51 50 50 49 49 49 49 48 48 48 48 46 45 45 44 43 42 41 41 40 38 37 36 36 35
43 45 46 47 49 50 51 51 52 52 52 52 52 52 52 52 52 51 50 49 49 49 49 48 48 48 48 47 47 46 45 44 44 43 42 41 40 39 38 37 36 35 34
Wind_Direction
207 206 207 206 204 205 206 207 209 210 211 213 215 217 217 219 220 223 225 228 230 232 234 238 241 244 246 249 251 255 258 260 263 266 268 270 274 277 279 281 282 284 286
208 205 204 204 204 203 203 205 206 210 214 216 217 219 220 221 222 224 227 230 232 233 236 240 243 245 247 250 253 255 258 262 264 267 270 273 276 278 281 283 284 285 287
209 209 207 207 204 204 206 208 210 211 215 217 219 220 222 223 224 227 229 232 233 235 238 240 244 246 249 252 254 256 259 262 264 266 270 274 277 280 282 284 285 286 288
209 210 212 211 209 208 207 208 211 215 216 217 218 221 223 225 228 231 232 235 237 237 238 240 244 247 249 252 254 256 260 263 263 267 272 276 278 280 281 283 285 287 289
210 212 213 214 214 211 210 211 213 217 218 219 223 223 224 226 230 233 234 236 238 239 240 242 245 247 249 252 255 257 260 263 267 271 275 277 278 281 282 284 286 287 288
212 215 217 219 218 219 221 220 222 223 224 224 227 228 229 230 232 233 235 238 242 243 244 246 248 250 252 254 257 259 262 266 270 273 276 278 280 282 284 285 287 288 290
216 219 220 221 221 225 227 227 229 231 231 233 233 232 233 234 236 237 240 244 247 248 250 251 252 252 255 257 258 261 265 269 272 274 277 279 282 283 285 286 287 289 290
218 221 223 224 227 231 233 233 234 239 240 241 242 242 241 243 244 244 246 250 250 251 252 254 253 253 255 258 261 263 267 271 274 276 278 280 282 284 285 286 288 289 290
216 221 224 226 231 235 237 239 242 243 242 243 247 247 246 247 249 249 251 253 255 254 255 256 258 257 259 261 262 266 270 273 276 277 279 281 283 284 285 287 288 289 289
215 222 226 229 235 239 242 245 247 248 248 248 248 251 253 253 253 253 255 257 257 256 257 258 258 259 260 262 266 270 273 275 276 277 278 280 282 284 286 287 288 288 289
222 228 230 232 237 242 247 249 251 254 255 256 257 259 261 261 261 261 262 262 261 260 259 260 261 262 263 266 269 271 272 273 275 276 279 281 282 283 285 286 287 287 288
225 237 242 243 244 247 250 252 254 257 258 259 260 260 261 262 263 263 263 262 261 262 262 262 264 264 265 267 269 270 272 272 274 276 277 279 281 282 284 285 285 286 286
232 241 246 249 251 253 254 256 258 259 259 260 262 262 261 261 262 262 262 263 263 264 264 265 266 266 267 268 269 269 271 272 273 275 277 278 279 280 282 283 284 285 285
238 245 250 253 255 256 258 259 260 261 261 261 261 262 262 261 261 261 262 263 264 264 265 266 266 267 267 268 269 270 271 272 273 275 276 277 278 279 280 281 283 284 285
243 248 251 254 257 258 259 260 261 262 263 262 263 263 264 264 264 264 264 265 265 266 266 267 267 267 268 269 269 270 270 271 272 273 275 276 277 279 280 281 283 284 285
252 254 256 258 260 262 263 263 264 264 265 265 265 265 265 265 265 265 265 266 265 265 266 267 267 267 267 267 268 269 270 271 271 272 273 274 276 278 279 281 282 284 285
260 261 262 264 265 266 266 266 267 268 268 267 268 268 267 266 266 266 266 266 266 266 266 266 266 266 266 266 267 268 268 269 270 271 272 274 276 277 279 281 282 284 285
267 267 268 269 270 271 270 270 269 269 269 269 269 268 268 268 267 267 267 266 266 265 265 265 266 265 265 265 266 267 267 268 269 270 272 273 274 276 278 280 282 283 283
271 271 272 272 273 273 273 272 272 272 272 272 271 270 269 269 268 268 267 266 265 265 264 264 264 264 264 264 264 265 266 267 268 269 270 272 273 275 277 279 280 281 281
275 274 274 274 275 275 275 274 273 273 273 273 272 272 271 270 269 268 267 266 265 265 264 263 263 263 263 263 264 264 265 266 267 268 269 271 272 274 276 278 279 279 279
279 278 277 277 277 277 276 276 275 275 274 274 273 272 271 270 270 268 267 266 265 264 264 263 263 263 262 263 263 264 264 265 266 266 268 269 271 273 275 276 277 277 277
284 282 281 280 280 280 279 278 277 276 275 274 273 272 271 270 269 268 267 265 265 264 263 262 262 262 261 261 262 262 263 263 264 265 266 267 269 271 272 274 275 275 274
289 287 285 284 283 282 282 280 279 277 276 276 275 274 272 271 269 267 266 265 264 262 261 260 260 260 260 260 260 260 261 261 262 263 264 266 267 269 271 272 273 273 272
294 292 290 288 287 286 284 283 281 279 277 276 275 274 272 271 269 267 265 263 262 261 260 259 258 258 258 258 259 259 259 259 260 261 262 263 265 267 268 270 270 270 269
298 296 293 292 290 288 287 285 282 280 279 278 277 274 272 270 269 266 265 263 261 260 258 257 256 256 256 256 256 257 257 258 258 260 261 262 263 265 266 267 267 267 266
302 299 297 295 293 291 289 287 284 281 280 279 277 275 273 271 268 266 264 262 260 258 257 256 255 254 254 254 254 254 254 256 257 258 259 260 261 262 263 265 265 265 264
Height
5672 5681 5689 5698 5706 5714 5721 5727 5734 5741 5746 5752 5757 5763 5768 5772 5777 5781 5785 5789 5792 5795 5798 5800 5803 5804 5806 5807 5808 5810 5811 5811 5812 5812 5812 5811 5811 5810 5809 5808 5807 5805 5804
5668 5677 5686 5694 5702 5710 5716 5722 5729 5735 5741 5747 5753 5758 5762 5766 5771 5774 5778 5782 5785 5788 5791 5793 5796 5797 5799 5800 5801 5802 5803 5804 5804 5805 5804 5804 5804 5803 5801 5800 5798 5797 5796
5664 5673 5682 5690 5697 5704 5711 5717 5724 5730 5736 5741 5747 5751 5755 5759 5763 5767 5771 5774 5777 5780 5783 5785 5788 5790 5791 5793 5794 5795 5795 5796 5796 5797 5797 5797 5796 5795 5794 5792 5790 5789 5788
5662 5671 5678 5686 5692 5699 5706 5713 5719 5725 5731 5736 5741 5745 5749 5753 5757 5760 5764 5767 5770 5773 5775 5778 5780 5782 5784 5785 5786 5787 5788 5788 5788 5789 5789 5789 5788 5787 5787 5785 5783 5781 5779
5661 5668 5675 5682 5688 5695 5701 5707 5713 5719 5725 5730 5735 5739 5743 5747 5750 5753 5757 5760 5762 5765 5767 5770 5772 5774 5775 5777 5778 5779 5779 5780 5780 5780 5780 5780 5779 5778 5778 5777 5775 5773 5771
5659 5666 5673 5679 5685 5691 5696 5702 5708 5713 5718 5723 5728 5732 5736 5740 5743 5746 5750 5752 5754 5756 5759 5761 5764 5765 5767 5768 5769 5770 5771 5771 5772 5772 5772 5771 5770 5770 5769 5768 5766 5764 5762
5659 5665 5671 5677 5682 5688 5693 5698 5704 5708 5712 5717 5721 5725 5729 5732 5735 5739 5742 5744 5746 5748 5751 5753 5755 5757 5758 5759 5760 5761 5762 5762 5763 5763 5763 5762 5761 5760 5759 5757 5756 5754 5752
5659 5664 5670 5674 5679 5684 5689 5694 5699 5703 5707 5711 5715 5718 5721 5725 5728 5731 5733 5736 5738 5740 5742 5744 5746 5748 5749 5750 5751 5752 5752 5753 5753 5753 5753 5752 5751 5750 5748 5747 5745 5744 5742
5658 5663 5667 5672 5677 5681 5686 5690 5694 5698 5701 5705 5709 5711 5714 5717 5719 5722 5724 5727 5729 5731 5733 5735 5737 5738 5740 5741 5742 5742 5743 5743 5743 5743 5742 5742 5741 5740 5738 5736 5734 5733 5731
5657 5662 5666 5670 5674 5678 5682 5686 5689 5693 5696 5699 5702 5704 5707 5709 5711 5714 5716 5718 5720 5722 5724 5726 5727 5728 5729 5730 5731 5732 5732 5733 5733 5732 5731 5731 5730 5728 5727 5725 5723 5721 5719
5656 5660 5664 5668 5671 5675 5678 5681 5684 5687 5690 5692 5695 5697 5699 5701 5703 5705 5707 5709 5711 5713 5715 5716 5717 5719 5719 5720 5720 5721 5721 5722 5721 5721 5720 5719 5718 5717 5715 5713 5711 5709 5707
5656 5659 5662 5665 5668 5671 5674 5677 5679 5681 5684 5686 5688 5690 5691 5693 5695 5696 5698 5700 5702 5703 5705 5706 5707 5708 5708 5709 5709 5709 5709 5709 5709 5709 5708 5707 5706 5705 5703 5701 5699 5697 5694
5654 5657 5660 5662 5665 5667 5669 5671 5673 5675 5677 5679 5680 5682 5683 5685 5686 5687 5689 5690 5691 5692 5694 5695 5696 5696 5697 5697 5697 5697 5697 5697 5697 5696 5695 5695 5694 5692 5691 5689 5687 5685 5683
5652 5654 5657 5659 5661 5662 5664 5665 5667 5668 5669 5670 5671 5672 5673 5675 5676 5677 5678 5679 5680 5681 5682 5682 5683 5684 5684 5685 5685 5685 5684 5684 5684 5683 5683 5682 5681 5680 5679 5677 5675 5673 5671
5649 5651 5652 5654 5656 5657 5658 5659 5659 5660 5661 5661 5662 5662 5663 5664 5665 5665 5666 5667 5668 5668 5669 5670 5670 5671 5671 5672 5672 5672 5672 5671 5671 5671 5671 5670 5669 5668 5667 5665 5663 5661 5659
5645 5646 5647 5648 5649 5650 5650 5650 5650 5651 5651 5651 5651 5651 5652 5652 5652 5653 5653 5654 5654 5655 5656 5656 5657 5658 5658 5658 5659 5659 5659 5659 5659 5658 5658 5658 5657 5656 5655 5653 5651 5650 5648
5640 5641 5641 5641 5642 5641 5641 5641 5640 5640 5640 5639 5639 5639 5639 5639 5639 5639 5640 5640 5641 5641 5642 5643 5643 5644 5645 5645 5645 5645 5646 5646 5646 5646 5645 5645 5644 5644 5643 5641 5640 5638 5636
5634 5634 5634 5634 5633 5632 5631 5630 5629 5628 5627 5626 5626 5625 5625 5625 5625 5625 5625 5625 5626 5627 5627 5628 5629 5630 5630 5631 5631 5632 5632 5632 5633 5633 5633 5632 5632 5631 5630 5629 5628 5626 5624
5628 5627 5626 5625 5624 5622 5621 5619 5617 5615 5614 5612 5611 5610 5609 5609 5609 5609 5609 5610 5611 5612 5612 5613 5614 5615 5616 5617 5617 5618 5618 5619 5619 5619 5620 5620 5620 5619 5618 5617 5616 5614 5613
5620 5619 5618 5616 5614 5611 5609 5607 5604 5602 5600 5598 5596 5595 5594 5593 5593 5593 5593 5594 5594 5595 5596 5598 5599 5600 5601 5602 5603 5603 5604 5605 5606 5606 5606 5606 5607 5606 5605 5605 5604 5603 5602
5612 5610 5608 5605 5603 5600 5597 5593 5590 5588 5585 5582 5580 5579 5578 5577 5577 5577 5577 5577 5578 5579 5580 5582 5583 5584 5586 5587 5588 5589 5590 5591 5592 5593 5593 5593 5594 5593 5593 5592 5592 5591 5591
5603 5600 5597 5594 5590 5587 5583 5579 5576 5572 5569 5566 5564 5562 5561 5560 5559 5559 5560 5560 5561 5563 5564 5565 5567 5569 5570 5572 5573 5574 5576 5577 5578 5579 5580 5580 5580 5581 5580 5580 5580 5580 5579
5593 5589 5585 5581 5577 5573 5568 5564 5560 5556 5553 5550 5547 5545 5543 5542 5542 5542 5543 5543 5544 5546 5547 5549 5551 5553 5554 5556 5558 5559 5561 5562 5564 5565 5566 5567 5568 5568 5568 5568 5568 5569 5568
5581 5577 5572 5567 5563 5557 5553 5548 5544 5540 5536 5532 5530 5527 5526 5525 5524 5524 5525 5526 5527 5529 5531 5533 5535 5537 5539 5541 5543 5545 5546 5548 5550 5552 5553 5554 5555 5556 5556 5557 5557 5557 5558
5568 5563 5558 5553 5547 5542 5536 5531 5526 5521 5518 5514 5512 5509 5508 5507 5506 5506 5507 5508 5510 5511 5514 5516 5518 5521 5524 5526 5528 5530 5532 5534 5536 5538 5540 5541 5542 5544 5545 5545 5546 5546 5547
5555 5549 5543 5537 5531 5525 5518 5512 5507 5503 5500 5496 5493 5491 5489 5488 5487 5488 5489 5490 5492 5494 5496 5499 5502 5505 5508 5510 5513 5515 5518 5520 5522 5524 5526 5528 5530 5531 5533 5534 5535 5535 5536